Simultaneous Nadir Overpasses (SNOs) Predictions

Prediction of SNOs between GOES-15 and METOP-A Satellite Orbit:

Table of predicted SNOs for the next 14.0 days since TLE Epoch: 9/18/2021
Index Date Time (GOES-15) GOES-15 Lat,Lon METOP-A Lat,Lon Distance(km) Time Diff (sec)
1 09/18/2021 16:27:54 -0.17,-127.94 -0.14,-127.95 3.05 80
2 09/21/2021 04:28:54 0.19,-127.89 0.27,-127.62 32.10 80
3 09/23/2021 16:27:04 -0.20,-127.79 -0.34,-127.23 63.42 80
4 09/25/2021 04:43:23 0.23,-127.77 -0.68,-131.87 467.06 80
5 09/26/2021 04:25:23 0.21,-127.74 0.41,-126.89 96.84 80
6 09/27/2021 16:41:33 -0.24,-127.65 0.62,-131.49 437.62 80
7 09/28/2021 16:23:33 -0.21,-127.61 -0.48,-126.51 126.09 80
8 09/30/2021 04:39:52 0.24,-127.59 -0.53,-131.14 405.21 80
9 10/01/2021 04:21:50 0.22,-127.54 0.51,-126.15 157.89 80
